Tracking 33744 objects as of 13-Apr-2026
HD Live streaming from Space Station
objects crossing your sky now

CZ-2F DEB

Track CZ-2F DEB now!
10-day predictions


NORAD ID: 67718
Int'l Code: 2026-024E
Perigee: 318.2 km
Apogee: 535.3 km
Inclination: 50.3 °
Period: 93.0 minutes
Semi major axis: 6797 km
RCS: Unknown
Launch date: February 7, 2026
Source: People's Republic of China (PRC)
Launch site: Jiuquan Satellite Launch Center, China (JSC)

Note: This is SATELLITE DEBRIS
Your satellite tracking list
Your tracking list is empty




NASA's NSSDC Master Catalog

Two Line Element Set (TLE):
1 67718U 26024E   26101.51931949  .00435660  00000-0  44777-2 0  9999
2 67718  50.3117 214.5899 0159754  51.5788 309.9402 15.49012792  9681
Source of the keplerian elements: AFSPC